Location: Alpine
(43.1636°N, 111.0180°W)
Time: 04:04:32
(UTC+00:00)

Tiros 1 despin weight - Pass Details

Date: 01 June 2022
Orbit: 591 x 639 km, 48.2° (Epoch: 30 June)

Event Time Altitude Azimuth Distance (km) Brightness Sun altitude
Rises 22:06:04 0° 211° (SSW) 2,903 ? 50.1°
Reaches altitude 10° 22:08:36 10° 200° (SSW) 1,992 ? 49.7°
Maximum altitude 22:12:34 29° 140° (SE) 1,136 ? 49.0°
Drops below altitude 10° 22:16:29 10° 80° (E) 1,974 ? 48.3°
Sets 22:19:00 0° 70° (ENE) 2,873 ? 47.9°
